KK5DC Weather Reports


Display with metric or nautical units.
time (UTC)temp
F
wind
direction
speed
MPH
gust
MPH
rain 1hr
in
rain 24hr
in
rain mn
in
humidity
%
barometer
mb
20260508012506 62 150 0.0 2.0 0.00 0.00 0.00 77 1014.8
20260508012012 62 126 0.0 2.0 0.00 0.00 0.00 78 1015.1
20260508012005 62 327 0.0 3.0 0.00 0.00 0.00 78 1014.3
20260508011530 62 13 0.0 2.0 0.00 0.00 0.00 77 1015.1
20260508011505 62 319 1.0 2.0 0.00 0.00 0.00 77 1014.4
20260508011003 62 76 0.0 2.0 0.00 0.00 0.00 78 1015.3
20260508010505 62 360 0.0 2.0 0.00 0.00 0.00 76 1015.6
20260508010503 62 331 1.0 2.0 0.00 0.00 0.00 76 1015.0
20260508010021 62 352 1.0 2.0 0.00 0.00 0.00 76 1015.7
20260508010014 62 336 0.0 2.0 0.00 0.00 0.00 76 1015.0
20260508005505 63 322 0.0 4.0 0.00 0.00 0.00 77 1015.1
20260508005503 63 332 0.0 4.0 0.00 0.00 0.00 77 1015.7
20260508005006 63 319 1.0 3.0 0.00 0.00 0.00 75 1015.2
20260508005004 63 329 1.0 4.0 0.00 0.00 0.00 75 1015.9
20260508004529 63 76 0.0 2.0 0.00 0.00 0.00 76 1015.9
20260508004527 63 331 0.0 3.0 0.00 0.00 0.00 76 1015.2
20260508004008 63 334 0.0 2.0 0.00 0.00 0.00 74 1015.6
20260508003507 63 334 0.0 4.0 0.00 0.00 0.00 75 1015.4
20260508003503 63 120 0.0 3.0 0.00 0.00 0.00 75 1016.1
20260508003021 63 332 1.0 4.0 0.00 0.00 0.00 75 1015.5
20260508003014 63 352 0.0 3.0 0.00 0.00 0.00 75 1016.1
20260508002508 63 336 0.0 3.0 0.00 0.00 0.00 76 1015.2
20260508002003 63 326 0.0 3.0 0.00 0.00 0.00 74 1016.0
20260508001517 64 323 1.0 3.0 0.00 0.00 0.00 74 1015.4
20260508001511 64 5 1.0 3.0 0.00 0.00 0.00 74 1016.0
20260508001009 64 331 1.0 3.0 0.00 0.00 0.00 73 1015.7
20260508001007 64 350 1.0 2.0 0.00 0.00 0.00 73 1016.3
20260508000511 64 57 1.0 3.0 0.00 0.00 0.00 74 1016.3
20260508000504 64 342 0.0 3.0 0.00 0.00 0.00 74 1015.7
20260508000008 64 348 1.0 4.0 0.00 0.00 0.00 72 1016.6
20260507235506 64 32 1.0 4.0 0.00 0.00 0.00 71 1016.7
20260507235504 64 331 1.0 4.0 0.00 0.00 0.00 71 1016.1
20260507235006 64 36 1.0 4.0 0.00 0.00 0.00 73 1016.5
20260507235004 64 331 1.0 4.0 0.00 0.00 0.00 73 1016.0
20260507234513 64 32 0.0 5.0 0.00 0.00 0.00 71 1016.4
20260507234509 64 36 0.0 5.0 0.00 0.00 0.00 71 1015.8
20260507234005 64 5 2.0 5.0 0.00 0.00 0.00 71 1016.3
20260507233507 65 5 0.0 4.0 0.00 0.00 0.00 71 1016.2
20260507233504 65 336 1.0 5.0 0.00 0.00 0.00 71 1015.6
20260507233028 65 331 1.0 5.0 0.00 0.00 0.00 70 1015.8
20260507233023 65 14 0.0 4.0 0.00 0.00 0.00 70 1016.4
20260507232504 65 20 1.0 3.0 0.00 0.00 0.00 70 1016.1
20260507232012 65 327 1.0 4.0 0.00 0.00 0.00 71 1015.6
20260507232007 65 321 0.0 3.0 0.00 0.00 0.00 71 1016.2
20260507231526 65 327 2.0 5.0 0.00 0.00 0.00 69 1015.6
20260507231521 65 360 1.0 3.0 0.00 0.00 0.00 69 1016.3
20260507231007 65 338 1.0 5.0 0.00 0.00 0.00 70 1016.6
20260507230507 65 325 3.0 6.0 0.00 0.00 0.00 70 1016.0
20260507230504 65 5 2.0 5.0 0.00 0.00 0.00 70 1016.5
20260507230024 65 320 1.0 6.0 0.00 0.00 0.00 71 1016.0
20260507230020 65 55 1.0 5.0 0.00 0.00 0.00 71 1016.7
20260507225508 66 350 2.0 5.0 0.00 0.00 0.00 70 1016.9
20260507225504 66 336 2.0 5.0 0.00 0.00 0.00 70 1016.3
20260507225004 65 346 1.0 5.0 0.00 0.00 0.00 69 1016.4
20260507224517 66 348 2.0 8.0 0.00 0.00 0.00 68 1017.1
20260507224511 66 335 2.0 8.0 0.00 0.00 0.00 68 1016.5
20260507224004 66 320 2.0 9.0 0.00 0.00 0.00 68 1016.5
20260507224002 66 320 2.0 9.0 0.00 0.00 0.00 68 1017.1
20260507223504 66 221 2.0 9.0 0.00 0.00 0.00 68 1017.0
20260507223016 66 51 2.0 7.0 0.00 0.00 0.00 68 1017.2
20260507222516 66 13 1.0 4.0 0.00 0.00 0.00 68 1016.9
20260507222505 66 331 1.0 5.0 0.00 0.00 0.00 68 1016.3
20260507222007 66 337 1.0 4.0 0.00 0.00 0.00 69 1017.1
20260507221517 66 334 2.0 4.0 0.00 0.00 0.00 69 1016.2
20260507221511 66 346 2.0 4.0 0.00 0.00 0.00 69 1016.8
20260507221008 66 71 2.0 9.0 0.00 0.00 0.00 68 1015.8
20260507221005 66 11 2.0 6.0 0.00 0.00 0.00 68 1016.4
20260507220517 66 330 0.0 10.0 0.00 0.00 0.00 70 1016.5
20260507220509 66 331 1.0 10.0 0.00 0.00 0.00 70 1015.8
20260507220025 66 336 2.0 10.0 0.00 0.00 0.00 69 1015.9
20260507220023 66 37 1.0 10.0 0.00 0.00 0.00 69 1016.5
20260507215510 66 28 2.0 5.0 0.00 0.00 0.00 66 1016.8
20260507215506 66 333 2.0 8.0 0.00 0.00 0.00 66 1016.3
20260507215009 67 346 2.0 11.0 0.00 0.00 0.00 68 1016.0
20260507215007 67 298 1.0 11.0 0.00 0.00 0.00 68 1016.5
20260507214529 67 352 3.0 11.0 0.00 0.00 0.00 67 1016.6
20260507214003 67 16 2.0 8.0 0.00 0.00 0.00 68 1017.0
20260507213503 67 323 1.0 10.0 0.00 0.00 0.00 68 1016.3
20260507213014 66 27 2.0 10.0 0.00 0.00 0.00 67 1016.0
20260507213011 66 346 2.0 10.0 0.00 0.00 0.00 67 1016.6
20260507212508 66 41 3.0 6.0 0.00 0.00 0.00 67 1016.7
20260507212505 66 18 3.0 6.0 0.00 0.00 0.00 67 1016.1
20260507212008 66 80 2.0 8.0 0.00 0.00 0.00 69 1016.7
20260507212005 66 331 2.0 8.0 0.00 0.00 0.00 69 1016.1
20260507211523 66 13 3.0 11.0 0.00 0.00 0.00 70 1016.7
20260507211006 65 342 4.0 11.0 0.00 0.00 0.00 69 1016.8
20260507210502 65 327 4.0 10.0 0.00 0.00 0.00 69 1016.3
20260507210033 66 327 4.0 10.0 0.00 0.00 0.00 69 1016.5
20260507210016 66 12 3.0 7.0 0.00 0.00 0.00 69 1017.1
20260507205511 66 360 2.0 6.0 0.00 0.00 0.00 69 1017.1
20260507205508 66 327 2.0 8.0 0.00 0.00 0.00 69 1016.5
20260507205009 66 22 1.0 5.0 0.00 0.00 0.00 70 1017.1
20260507205007 66 321 2.0 6.0 0.00 0.00 0.00 70 1016.5
20260507204516 66 281 1.0 11.0 0.00 0.00 0.00 67 1017.2
20260507204514 66 343 1.0 11.0 0.00 0.00 0.00 67 1016.6
20260507204009 66 5 2.0 11.0 0.00 0.00 0.00 67 1017.0
20260507203512 66 332 5.0 12.0 0.00 0.00 0.00 66 1016.3
20260507203509 66 360 4.0 11.0 0.00 0.00 0.00 66 1016.9
20260507203013 67 316 2.0 9.0 0.00 0.00 0.00 67 1017.0
20260507203009 67 330 3.0 9.0 0.00 0.00 0.00 67 1016.4
20260507202507 66 360 3.0 9.0 0.00 0.00 0.00 69 1016.4
20260507202505 66 352 1.0 9.0 0.00 0.00 0.00 69 1017.0
20260507202011 65 333 1.0 8.0 0.00 0.00 0.00 70 1017.0
20260507202005 65 348 1.0 10.0 0.00 0.00 0.00 70 1016.5
20260507201518 65 5 2.0 8.0 0.00 0.00 0.00 69 1017.0
20260507201007 65 360 3.0 8.0 0.00 0.00 0.00 69 1017.1
20260507200508 65 348 3.0 8.0 0.00 0.00 0.00 73 1016.1
20260507200506 65 302 1.0 8.0 0.00 0.00 0.00 73 1016.7
20260507200027 64 340 2.0 6.0 0.00 0.00 0.00 74 1016.4
20260507200021 64 344 1.0 6.0 0.00 0.00 0.00 74 1017.1
20260507195506 64 323 2.0 12.0 0.00 0.00 0.00 72 1016.6
20260507195503 64 13 2.0 12.0 0.00 0.00 0.00 72 1017.2
20260507195007 65 44 3.0 12.0 0.00 0.00 0.00 72 1017.5
20260507194535 65 342 3.0 6.0 0.00 0.00 0.00 71 1017.2
20260507194526 65 291 2.0 9.0 0.00 0.00 0.00 70 1017.9
20260507194010 65 335 1.0 9.0 0.00 0.00 0.00 70 1017.9
20260507193506 64 340 5.0 10.0 0.00 0.00 0.00 69 1017.1
20260507193503 64 34 4.0 9.0 0.00 0.00 0.00 69 1017.7
20260507193027 65 321 2.0 9.0 0.00 0.00 0.00 72 1017.6
20260507193006 65 341 2.0 8.0 0.00 0.00 0.00 72 1018.2
20260507192510 64 340 3.0 10.0 0.00 0.00 0.00 70 1017.7
20260507192505 64 346 1.0 10.0 0.00 0.00 0.00 70 1018.3
20260507192011 64 322 2.0 10.0 0.00 0.00 0.00 69 1017.6
20260507192006 64 352 1.0 10.0 0.00 0.00 0.00 69 1018.2
20260507191514 65 40 2.0 11.0 0.00 0.00 0.00 68 1018.2
20260507191008 66 318 3.0 10.0 0.00 0.00 0.00 70 1018.2
20260507191004 66 338 3.0 10.0 0.00 0.00 0.00 70 1017.5
20260507190507 65 341 4.0 10.0 0.00 0.00 0.00 69 1017.4
20260507190017 66 12 4.0 9.0 0.00 0.00 0.00 69 1018.2
20260507185507 66 318 1.0 11.0 0.00 0.00 0.00 69 1018.2
20260507185010 66 312 5.0 10.0 0.00 0.00 0.00 68 1017.8
20260507185003 66 350 3.0 11.0 0.00 0.00 0.00 68 1018.4
20260507184526 67 322 5.0 10.0 0.00 0.00 0.00 67 1017.7
20260507184512 67 360 3.0 10.0 0.00 0.00 0.00 67 1018.3
20260507184007 67 328 3.0 10.0 0.00 0.00 0.00 68 1017.7
20260507184004 67 335 3.0 10.0 0.00 0.00 0.00 68 1018.4
20260507183511 67 325 2.0 10.0 0.00 0.00 0.00 68 1017.3
20260507183505 67 323 2.0 9.0 0.00 0.00 0.00 68 1017.9
20260507183034 67 352 4.0 10.0 0.00 0.00 0.00 67 1017.0
20260507183010 67 134 2.0 7.0 0.00 0.00 0.00 67 1017.7
20260507182509 67 323 2.0 12.0 0.00 0.00 0.00 71 1017.3
20260507182503 67 13 1.0 11.0 0.00 0.00 0.00 71 1018.0
20260507182013 66 15 3.0 12.0 0.00 0.00 0.00 67 1017.2
20260507182004 66 342 2.0 11.0 0.00 0.00 0.00 67 1017.9
20260507181525 67 343 2.0 11.0 0.00 0.00 0.00 68 1017.2
20260507181507 67 40 2.0 10.0 0.00 0.00 0.00 69 1017.9
20260507181015 67 330 3.0 11.0 0.00 0.00 0.00 67 1017.1
20260507181009 67 15 3.0 11.0 0.00 0.00 0.00 67 1017.8
20260507180507 67 17 3.0 12.0 0.00 0.00 0.00 67 1018.1
20260507180504 67 331 4.0 12.0 0.00 0.00 0.00 67 1017.4
20260507180015 66 19 3.0 12.0 0.00 0.00 0.00 68 1018.1
20260507180005 66 11 5.0 12.0 0.00 0.00 0.00 68 1017.4
20260507175508 66 73 1.0 6.0 0.00 0.00 0.00 69 1018.0
20260507175503 66 20 2.0 9.0 0.00 0.00 0.00 69 1017.3
20260507175007 66 291 2.0 7.0 0.00 0.00 0.00 68 1017.9
20260507175003 66 298 2.0 8.0 0.00 0.00 0.00 68 1017.3
20260507174540 66 52 1.0 11.0 0.00 0.00 0.00 69 1018.2
20260507174503 66 338 3.0 11.0 0.00 0.00 0.00 69 1017.5
20260507174007 65 61 2.0 11.0 0.00 0.00 0.00 69 1018.2
20260507174003 65 322 3.0 11.0 0.00 0.00 0.00 69 1017.7
20260507173509 65 352 3.0 8.0 0.00 0.00 0.00 69 1018.5
20260507173503 65 333 4.0 10.0 0.00 0.00 0.00 69 1018.0
20260507173006 65 312 2.0 10.0 0.00 0.00 0.00 72 1018.0
20260507172504 64 61 2.0 8.0 0.00 0.00 0.00 73 1018.7
20260507172004 64 333 4.0 9.0 0.00 0.00 0.00 72 1018.2
20260507171510 64 5 1.0 10.0 0.00 0.00 0.00 72 1019.1
20260507171503 64 336 3.0 10.0 0.00 0.00 0.00 72 1018.3
20260507171007 63 351 3.0 10.0 0.00 0.00 0.00 73 1019.4
20260507171002 63 328 5.0 10.0 0.00 0.00 0.00 73 1018.6
20260507170504 63 334 3.0 10.0 0.00 0.00 0.00 75 1018.8
20260507170012 63 32 3.0 9.0 0.00 0.00 0.00 73 1019.4
20260507170007 63 43 3.0 10.0 0.00 0.00 0.00 73 1018.9
20260507165508 62 42 1.0 9.0 0.00 0.00 0.00 75 1019.8
20260507165505 62 340 1.0 9.0 0.00 0.00 0.00 75 1019.3
20260507165007 62 74 2.0 9.0 0.00 0.00 0.00 75 1020.2
20260507165003 62 352 2.0 9.0 0.00 0.00 0.00 75 1019.5
20260507164508 61 325 3.0 9.0 0.00 0.00 0.00 74 1018.9
20260507164005 61 360 2.0 8.0 0.00 0.00 0.00 74 1019.5
20260507163508 61 90 1.0 6.0 0.00 0.00 0.00 74 1019.4
20260507163504 61 333 3.0 6.0 0.00 0.00 0.00 74 1018.9
20260507163007 61 33 1.0 10.0 0.00 0.00 0.00 76 1019.6
20260507163003 61 290 1.0 10.0 0.00 0.00 0.00 76 1019.0
20260507162511 60 306 3.0 10.0 0.00 0.00 0.00 75 1019.4
20260507162503 60 342 4.0 10.0 0.00 0.00 0.00 75 1018.8
20260507162004 60 330 2.0 9.0 0.00 0.00 0.00 77 1018.6
20260507161506 60 17 2.0 8.0 0.00 0.00 0.00 77 1019.4
20260507161504 60 315 4.0 9.0 0.00 0.00 0.00 77 1018.8
20260507161005 60 34 3.0 11.0 0.00 0.00 0.00 77 1019.3
20260507160504 59 342 3.0 11.0 0.00 0.00 0.00 78 1019.2
20260507160502 59 320 3.0 11.0 0.00 0.00 0.00 78 1018.6
20260507160014 59 331 2.0 10.0 0.00 0.00 0.00 77 1019.5
20260507160008 59 347 2.0 10.0 0.00 0.00 0.00 77 1018.9
20260507155506 59 308 4.0 9.0 0.00 0.00 0.00 77 1019.0
20260507155504 59 304 3.0 9.0 0.00 0.00 0.00 77 1019.6
20260507155004 59 23 2.0 9.0 0.00 0.00 0.00 78 1019.5
20260507154520 59 340 4.0 9.0 0.00 0.00 0.00 78 1019.5
20260507154506 59 312 3.0 9.0 0.00 0.00 0.00 78 1018.9
20260507154009 59 49 1.0 6.0 0.00 0.00 0.00 79 1019.8
20260507154004 59 329 1.0 10.0 0.00 0.00 0.00 79 1019.1
20260507153505 59 17 2.0 6.0 0.00 0.00 0.00 79 1019.7
20260507153023 59 327 2.0 7.0 0.00 0.00 0.00 79 1018.9
20260507153019 59 328 1.0 7.0 0.00 0.00 0.00 79 1019.6
20260507152510 59 22 2.0 7.0 0.00 0.00 0.00 79 1019.7
20260507152503 59 338 2.0 7.0 0.00 0.00 0.00 79 1019.1
20260507152004 59 352 2.0 8.0 0.00 0.00 0.00 79 1018.9
20260507152001 59 344 2.0 7.0 0.00 0.00 0.00 79 1019.6
20260507151514 59 326 2.0 8.0 0.00 0.00 0.00 79 1019.5
20260507151507 59 360 2.0 8.0 0.00 0.00 0.00 79 1018.9
20260507151003 59 343 1.0 8.0 0.00 0.00 0.00 80 1018.9
20260507150504 59 331 3.0 8.0 0.00 0.00 0.00 80 1018.9
20260507150011 59 19 1.0 8.0 0.00 0.00 0.00 80 1019.4
20260507150008 59 315 2.0 8.0 0.00 0.00 0.00 80 1018.7
20260507145507 59 297 1.0 9.0 0.00 0.00 0.00 80 1019.3
20260507145503 59 350 3.0 9.0 0.00 0.00 0.00 80 1018.8
20260507145011 59 351 2.0 12.0 0.00 0.00 0.00 79 1019.3
20260507145007 59 245 3.0 12.0 0.00 0.00 0.00 79 1018.6
20260507144507 59 298 2.0 12.0 0.00 0.00 0.00 82 1018.1
20260507144006 59 352 3.0 12.0 0.00 0.00 0.00 80 1018.9
20260507144003 59 360 4.0 12.0 0.00 0.00 0.00 80 1018.1
20260507143506 59 22 2.0 12.0 0.00 0.00 0.00 80 1018.9
20260507143020 59 315 4.0 11.0 0.00 0.00 0.00 80 1018.7
20260507143005 59 341 4.0 10.0 0.00 0.00 0.00 80 1017.8
20260507142506 59 10 2.0 8.0 0.00 0.00 0.00 81 1018.3
20260507142504 59 325 4.0 8.0 0.00 0.00 0.00 81 1017.7
20260507142006 59 14 1.0 10.0 0.00 0.00 0.00 82 1018.0
20260507141524 59 336 3.0 10.0 0.00 0.00 0.00 81 1018.9
20260507141503 59 340 3.0 10.0 0.00 0.00 0.00 81 1018.2
20260507141010 59 48 4.0 10.0 0.00 0.00 0.00 82 1018.9
20260507141002 59 350 4.0 9.0 0.00 0.00 0.00 82 1018.3
20260507140504 59 323 4.0 10.0 0.00 0.00 0.00 82 1018.3
20260507140017 59 57 2.0 8.0 0.00 0.00 0.00 82 1018.8
20260507140011 59 349 3.0 10.0 0.00 0.00 0.00 82 1018.1
20260507135504 59 333 3.0 12.0 0.00 0.00 0.00 82 1018.8
20260507135502 59 329 4.0 12.0 0.00 0.00 0.00 82 1018.1
20260507135007 59 346 2.0 12.0 0.00 0.00 0.00 83 1018.9
20260507135004 59 319 3.0 12.0 0.00 0.00 0.00 83 1018.3
20260507134512 59 38 2.0 12.0 0.00 0.00 0.00 83 1018.8
20260507134509 59 306 2.0 12.0 0.00 0.00 0.00 83 1018.1
20260507134007 59 16 3.0 12.0 0.00 0.00 0.00 83 1018.6
20260507134003 59 330 3.0 12.0 0.00 0.00 0.00 83 1017.9
20260507133507 59 352 2.0 10.0 0.00 0.00 0.00 83 1018.4
20260507133503 59 327 3.0 10.0 0.00 0.00 0.00 83 1017.7
20260507133018 59 14 2.0 12.0 0.00 0.00 0.00 83 1017.8
20260507133014 59 106 2.0 9.0 0.00 0.00 0.00 83 1018.4
20260507132508 59 342 3.0 10.0 0.00 0.00 0.00 83 1018.6
20260507132504 59 321 5.0 10.0 0.00 0.00 0.00 83 1018.0
20260507132008 59 346 2.0 12.0 0.00 0.00 0.00 83 1018.7
20260507131519 59 314 4.0 11.0 0.00 0.00 0.00 83 1018.0
20260507131517 59 44 3.0 12.0 0.00 0.00 0.00 83 1018.6
20260507131007 59 11 3.0 12.0 0.00 0.00 0.00 83 1018.5
20260507131003 59 19 4.0 12.0 0.00 0.00 0.00 83 1017.9
20260507130507 59 34 5.0 12.0 0.00 0.00 0.00 82 1018.4
20260507130502 59 317 4.0 12.0 0.00 0.00 0.00 82 1017.8
20260507130027 59 17 4.0 12.0 0.00 0.00 0.00 83 1018.5
20260507130012 59 347 4.0 12.0 0.00 0.00 0.00 83 1017.8
20260507125508 59 352 4.0 17.0 0.00 0.00 0.00 83 1018.1
20260507125004 59 26 3.0 17.0 0.00 0.00 0.00 83 1018.7
20260507125002 59 313 4.0 17.0 0.00 0.00 0.00 83 1018.0
20260507124520 59 340 4.0 11.0 0.00 0.00 0.00 83 1017.8
20260507124511 59 12 4.0 14.0 0.00 0.00 0.00 83 1018.5
20260507124004 59 319 2.0 11.0 0.00 0.00 0.00 83 1017.9
20260507123507 59 309 3.0 9.0 0.00 0.00 0.00 83 1018.5
20260507123505 59 331 3.0 11.0 0.00 0.00 0.00 83 1017.9
20260507123018 59 57 3.0 9.0 0.00 0.00 0.00 84 1018.4
20260507123014 59 352 4.0 8.0 0.00 0.00 0.00 84 1017.9
20260507122512 59 21 3.0 14.0 0.00 0.00 0.00 84 1018.6
20260507122502 59 345 2.0 14.0 0.00 0.00 0.00 84 1017.9
20260507122008 59 122 2.0 14.0 0.00 0.00 0.00 84 1018.2
20260507122006 59 328 3.0 14.0 0.00 0.00 0.00 84 1017.6
20260507121521 59 39 5.0 12.0 0.00 0.00 0.00 85 1018.2
20260507121516 59 346 5.0 11.0 0.00 0.00 0.00 85 1017.6
20260507121007 59 42 4.0 12.0 0.00 0.00 0.00 85 1017.9
20260507120509 59 309 3.0 12.0 0.00 0.00 0.00 86 1017.2
20260507120504 59 360 4.0 12.0 0.00 0.00 0.00 86 1017.8
20260507120028 59 351 2.0 10.0 0.00 0.00 0.00 86 1017.7
20260507120021 59 338 3.0 10.0 0.00 0.00 0.00 86 1017.1
20260507115509 59 352 2.0 11.0 0.00 0.00 0.00 86 1017.6
20260507115503 59 333 3.0 9.0 0.00 0.00 0.00 86 1017.0
20260507115012 59 350 2.0 11.0 0.00 0.00 0.00 86 1017.7
20260507115001 59 318 3.0 11.0 0.00 0.00 0.00 86 1017.1
20260507114516 59 5 3.0 11.0 0.00 0.00 0.00 85 1017.7
20260507114508 59 330 4.0 11.0 0.00 0.00 0.00 85 1017.1
20260507114005 59 304 3.0 12.0 0.00 0.00 0.00 85 1017.1
20260507113508 59 350 4.0 12.0 0.00 0.00 0.00 86 1017.6
20260507113503 59 346 6.0 11.0 0.00 0.00 0.00 86 1017.0
20260507113017 59 9 3.0 8.0 0.00 0.00 0.00 86 1017.7
20260507113010 59 306 3.0 11.0 0.00 0.00 0.00 86 1017.3
20260507112511 59 44 1.0 7.0 0.00 0.00 0.00 86 1017.7
20260507112505 59 9 1.0 8.0 0.00 0.00 0.00 86 1017.1
20260507112008 59 46 2.0 8.0 0.00 0.00 0.00 86 1017.8
20260507112006 59 360 3.0 8.0 0.00 0.00 0.00 86 1017.2
20260507111520 59 293 3.0 14.0 0.00 0.00 0.00 86 1017.3
20260507111513 59 301 1.0 14.0 0.00 0.00 0.00 86 1016.7
20260507111006 59 340 2.0 14.0 0.00 0.00 0.00 87 1016.7
20260507110506 59 213 2.0 8.0 0.00 0.00 0.00 86 1017.3
20260507110023 59 9 3.0 9.0 0.00 0.00 0.00 87 1017.5
20260507110016 59 5 3.0 9.0 0.00 0.00 0.00 87 1017.0
20260507105506 59 331 2.0 9.0 0.00 0.00 0.00 87 1016.6
20260507105504 59 339 2.0 9.0 0.00 0.00 0.00 87 1017.2
20260507105007 59 331 2.0 12.0 0.00 0.00 0.00 87 1016.5
20260507104522 59 352 1.0 12.0 0.00 0.00 0.00 87 1017.0
20260507104518 59 339 2.0 12.0 0.00 0.00 0.00 87 1016.4
20260507104010 59 329 2.0 8.0 0.00 0.00 0.00 87 1016.7
20260507103506 59 328 1.0 6.0 0.00 0.00 0.00 88 1017.1
20260507103501 59 22 3.0 6.0 0.00 0.00 0.00 88 1016.7
20260507103025 59 360 3.0 9.0 0.00 0.00 0.00 88 1016.7
20260507103011 59 10 1.0 8.0 0.00 0.00 0.00 88 1017.2
20260507102504 59 24 2.0 8.0 0.00 0.00 0.00 87 1017.2
20260507102007 59 328 2.0 5.0 0.00 0.00 0.00 87 1016.8
20260507101523 59 20 1.0 9.0 0.00 0.00 0.00 87 1017.3
20260507101517 59 309 1.0 9.0 0.00 0.00 0.00 87 1016.8
20260507101009 59 19 2.0 9.0 0.00 0.00 0.00 87 1017.2
20260507101006 59 346 2.0 9.0 0.00 0.00 0.00 87 1016.7
20260507100507 59 13 2.0 9.0 0.00 0.00 0.00 87 1017.1
20260507100505 59 327 2.0 9.0 0.00 0.00 0.00 87 1016.6
20260507100030 59 349 1.0 4.0 0.00 0.00 0.00 87 1017.1
20260507100026 59 349 2.0 8.0 0.00 0.00 0.00 87 1016.7
20260507095509 59 325 1.0 8.0 0.00 0.00 0.00 87 1016.6
20260507095506 59 53 1.0 8.0 0.00 0.00 0.00 87 1017.2
20260507095008 59 83 2.0 8.0 0.00 0.00 0.00 87 1016.8
20260507095006 59 329 4.0 8.0 0.00 0.00 0.00 87 1016.4
20260507094526 59 345 3.0 8.0 0.00 0.00 0.00 86 1016.7
20260507094512 59 327 2.0 8.0 0.00 0.00 0.00 86 1016.2
20260507094007 59 327 2.0 8.0 0.00 0.00 0.00 86 1016.3
20260507093507 59 327 2.0 4.0 0.00 0.00 0.00 86 1016.3
20260507093031 59 55 0.0 4.0 0.00 0.00 0.00 86 1016.9
20260507093020 59 313 0.0 4.0 0.00 0.00 0.00 86 1016.3
20260507092509 59 298 0.0 4.0 0.00 0.00 0.00 86 1016.5
20260507092507 59 327 1.0 6.0 0.00 0.00 0.00 86 1015.9
20260507092011 59 295 1.0 4.0 0.00 0.00 0.00 86 1016.2
20260507092006 59 331 2.0 6.0 0.00 0.00 0.00 86 1015.5
20260507091524 60 328 2.0 5.0 0.00 0.00 0.00 86 1015.3
20260507091517 60 36 1.0 4.0 0.00 0.00 0.00 86 1016.0
20260507091004 60 336 2.0 5.0 0.00 0.00 0.00 85 1015.6
20260507090510 60 21 1.0 3.0 0.00 0.00 0.00 86 1016.3
20260507090506 60 325 2.0 5.0 0.00 0.00 0.00 86 1015.7
20260507090024 60 352 1.0 3.0 0.00 0.00 0.00 86 1016.2
20260507090004 60 333 1.0 5.0 0.00 0.00 0.00 86 1015.7
20260507085508 60 336 1.0 5.0 0.00 0.00 0.00 85 1016.5
20260507085503 60 327 2.0 9.0 0.00 0.00 0.00 85 1015.9
20260507085005 60 275 0.0 5.0 0.00 0.00 0.00 86 1016.6
20260507085002 60 318 0.0 9.0 0.00 0.00 0.00 86 1016.0
20260507084543 60 360 2.0 5.0 0.00 0.00 0.00 85 1016.3
20260507084503 60 360 4.0 9.0 0.00 0.00 0.00 85 1015.8
20260507084010 60 232 1.0 5.0 0.00 0.00 0.00 85 1016.4
20260507084003 60 330 2.0 5.0 0.00 0.00 0.00 85 1015.8
20260507083508 60 352 1.0 7.0 0.00 0.00 0.00 85 1016.3
20260507083503 60 324 2.0 7.0 0.00 0.00 0.00 85 1015.6
20260507083025 60 360 2.0 7.0 0.00 0.00 0.00 85 1016.1
20260507083002 60 327 2.0 7.0 0.00 0.00 0.00 85 1015.5
20260507082509 60 315 0.0 8.0 0.00 0.00 0.00 85 1016.0
20260507082504 60 333 1.0 9.0 0.00 0.00 0.00 85 1015.3
20260507082011 60 317 2.0 8.0 0.00 0.00 0.00 84 1016.0
20260507082005 60 342 2.0 9.0 0.00 0.00 0.00 84 1015.4
20260507081515 60 331 1.0 6.0 0.00 0.00 0.00 84 1015.4
20260507081012 60 316 1.0 6.0 0.00 0.00 0.00 84 1016.1
20260507081003 60 348 2.0 6.0 0.00 0.00 0.00 84 1015.5
20260507080505 60 81 1.0 6.0 0.00 0.00 0.00 84 1015.9
20260507080503 60 61 1.0 6.0 0.00 0.00 0.00 84 1015.2
20260507080017 60 287 1.0 6.0 0.00 0.00 0.00 84 1016.1
20260507080011 60 337 1.0 5.0 0.00 0.00 0.00 84 1015.4
20260507075508 60 9 1.0 5.0 0.00 0.00 0.00 84 1015.9
20260507075502 60 325 2.0 9.0 0.00 0.00 0.00 84 1015.2
20260507075013 60 179 2.0 9.0 0.00 0.00 0.00 84 1015.8
20260507075002 60 346 2.0 9.0 0.00 0.00 0.00 84 1015.2
20260507074524 60 335 3.0 10.0 0.00 0.00 0.00 83 1015.8
20260507074504 60 336 4.0 10.0 0.00 0.00 0.00 83 1015.2
20260507074007 60 86 1.0 10.0 0.00 0.00 0.00 83 1015.4
20260507074004 60 342 1.0 10.0 0.00 0.00 0.00 83 1016.1
20260507073508 60 352 1.0 10.0 0.00 0.00 0.00 84 1016.0
20260507073502 60 325 3.0 10.0 0.00 0.00 0.00 84 1015.4
20260507073027 60 42 3.0 10.0 0.00 0.00 0.00 83 1016.2
20260507073008 60 319 3.0 10.0 0.00 0.00 0.00 83 1015.6
20260507072512 60 23 1.0 5.0 0.00 0.00 0.00 83 1016.4
20260507072503 60 322 3.0 6.0 0.00 0.00 0.00 83 1015.8
20260507072006 60 97 1.0 5.0 0.00 0.00 0.00 84 1016.5
20260507072003 60 109 1.0 5.0 0.00 0.00 0.00 84 1015.8
20260507071524 60 320 2.0 8.0 0.00 0.00 0.00 83 1016.3
20260507071511 60 324 1.0 9.0 0.00 0.00 0.00 83 1015.5
20260507071010 60 30 1.0 8.0 0.00 0.00 0.00 84 1016.1
20260507071003 60 326 1.0 10.0 0.00 0.00 0.00 84 1015.3
20260507070504 60 342 2.0 7.0 0.00 0.00 0.00 84 1015.7
20260507070015 60 271 0.0 3.0 0.00 0.00 0.00 84 1016.3
20260507070009 60 348 2.0 5.0 0.00 0.00 0.00 84 1015.7
20260507065505 60 292 0.0 3.0 0.00 0.00 0.00 83 1015.8
20260507065502 60 17 1.0 3.0 0.00 0.00 0.00 83 1016.5
20260507065006 60 213 0.0 3.0 0.00 0.00 0.00 83 1015.1
20260507065003 60 33 0.0 3.0 0.00 0.00 0.00 83 1016.0
20260507064523 60 352 1.0 6.0 0.00 0.00 0.00 83 1015.2
20260507064506 60 33 0.0 5.0 0.00 0.00 0.00 83 1015.7
20260507064005 60 325 2.0 6.0 0.00 0.00 0.00 83 1014.9
20260507064003 60 352 2.0 5.0 0.00 0.00 0.00 83 1015.6
20260507063504 60 315 2.0 7.0 0.00 0.00 0.00 83 1015.4
20260507063006 60 300 2.0 7.0 0.00 0.00 0.00 83 1015.6
20260507063004 60 360 1.0 8.0 0.00 0.00 0.00 83 1016.3
20260507062504 61 329 2.0 9.0 0.00 0.00 0.00 82 1015.1
20260507062003 61 324 3.0 9.0 0.00 0.00 0.00 82 1015.3
20260507061510 61 324 3.0 9.0 0.00 0.00 0.00 82 1015.6
20260507061504 61 360 2.0 9.0 0.00 0.00 0.00 82 1016.3
20260507061005 61 5 2.0 9.0 0.00 0.00 0.00 82 1015.6
20260507061003 61 326 4.0 9.0 0.00 0.00 0.00 82 1014.8
20260507060503 61 22 0.0 5.0 0.00 0.00 0.00 82 1015.6
20260507060009 61 321 4.0 9.0 0.00 0.00 0.00 82 1015.4
20260507060003 61 315 2.0 5.0 0.00 0.00 0.00 82 1016.0
20260507055504 61 342 1.0 9.0 0.00 0.00 0.00 82 1015.3
20260507055007 61 311 3.0 9.0 0.00 0.00 0.00 82 1015.5
20260507055004 61 22 2.0 9.0 0.00 0.00 0.00 82 1016.2
20260507054505 61 327 3.0 6.0 0.00 0.00 0.00 82 1015.4
20260507054005 61 313 2.0 6.0 0.00 0.00 0.00 82 1015.4
20260507054003 61 313 1.0 7.0 0.00 0.00 0.00 82 1016.0
20260507053508 61 323 2.0 9.0 0.00 0.00 0.00 82 1015.6
20260507053503 61 331 2.0 9.0 0.00 0.00 0.00 82 1016.3
20260507053005 61 22 1.0 9.0 0.00 0.00 0.00 81 1016.2
20260507052507 61 319 1.0 10.0 0.00 0.00 0.00 82 1015.5
20260507052502 61 55 1.0 7.0 0.00 0.00 0.00 82 1016.2
20260507052004 61 322 1.0 11.0 0.00 0.00 0.00 82 1015.2
20260507051505 61 38 2.0 12.0 0.00 0.00 0.00 81 1015.8
20260507051006 61 42 1.0 12.0 0.00 0.00 0.00 81 1015.8
20260507051003 61 302 3.0 12.0 0.00 0.00 0.00 81 1015.3
20260507050504 61 17 2.0 8.0 0.00 0.00 0.00 81 1015.6
20260507050502 61 13 2.0 9.0 0.00 0.00 0.00 81 1016.2
20260507050013 61 5 2.0 9.0 0.00 0.00 0.00 81 1016.2
20260507045506 61 28 3.0 12.0 0.00 0.00 0.00 81 1016.0
20260507045503 61 338 3.0 12.0 0.00 0.00 0.00 81 1015.5
20260507045007 61 308 1.0 12.0 0.00 0.00 0.00 81 1015.6
20260507045004 61 13 1.0 12.0 0.00 0.00 0.00 81 1016.2
20260507044521 61 339 3.0 12.0 0.00 0.00 0.00 82 1015.3
20260507044504 61 61 2.0 12.0 0.00 0.00 0.00 82 1016.0
20260507044008 61 317 2.0 10.0 0.00 0.00 0.00 81 1015.2
20260507044003 61 352 2.0 12.0 0.00 0.00 0.00 81 1015.8
20260507043503 61 336 2.0 10.0 0.00 0.00 0.00 81 1015.4
20260507043014 61 317 3.0 10.0 0.00 0.00 0.00 81 1015.3
20260507043005 61 94 1.0 10.0 0.00 0.00 0.00 81 1015.9
20260507042509 61 313 3.0 10.0 0.00 0.00 0.00 81 1015.5
20260507042503 61 327 3.0 11.0 0.00 0.00 0.00 81 1016.1
20260507042003 61 34 4.0 11.0 0.00 0.00 0.00 81 1016.1
20260507041504 61 302 4.0 9.0 0.00 0.00 0.00 81 1015.4
20260507041004 61 321 3.0 9.0 0.00 0.00 0.00 82 1015.5
20260507040505 61 350 3.0 9.0 0.00 0.00 0.00 81 1015.4
20260507040007 61 51 3.0 7.0 0.00 0.00 0.00 81 1015.9
20260507035505 61 319 1.0 9.0 0.00 0.00 0.00 81 1015.3
20260507035502 61 14 1.0 8.0 0.00 0.00 0.00 81 1016.0
20260507035005 61 322 3.0 9.0 0.00 0.00 0.00 81 1015.2
20260507035003 61 38 2.0 8.0 0.00 0.00 0.00 81 1015.8
20260507034512 61 328 2.0 8.0 0.00 0.00 0.00 81 1015.2
20260507034507 61 316 1.0 8.0 0.00 0.00 0.00 81 1015.8
20260507034008 61 22 2.0 7.0 0.00 0.00 0.00 81 1016.0
20260507034004 61 329 2.0 6.0 0.00 0.00 0.00 81 1015.3
20260507033505 61 336 1.0 6.0 0.00 0.00 0.00 81 1015.3
20260507033503 61 344 2.0 7.0 0.00 0.00 0.00 81 1016.0
20260507033033 61 339 2.0 13.0 0.00 0.00 0.00 81 1015.3
20260507033004 61 344 2.0 13.0 0.00 0.00 0.00 81 1016.1
20260507032504 61 17 2.0 13.0 0.00 0.00 0.00 81 1016.2
20260507032010 61 317 1.0 10.0 0.00 0.00 0.00 81 1015.0
20260507032003 61 9 1.0 10.0 0.00 0.00 0.00 81 1015.9
20260507031521 61 18 2.0 11.0 0.00 0.00 0.00 81 1014.9
20260507031508 61 14 2.0 11.0 0.00 0.00 0.00 81 1015.8
20260507031004 61 5 3.0 11.0 0.00 0.00 0.00 81 1015.4
20260507030504 61 47 3.0 10.0 0.00 0.00 0.00 81 1015.2
20260507030006 61 40 3.0 10.0 0.00 0.00 0.00 81 1015.3
20260507025504 62 319 4.0 12.0 0.00 0.00 0.00 81 1014.1
20260507025008 62 337 3.0 12.0 0.00 0.00 0.00 81 1015.6
20260507025002 62 330 3.0 8.0 0.00 0.00 0.00 81 1014.8
20260507024510 62 327 2.0 8.0 0.00 0.00 0.00 81 1015.0
20260507024504 62 36 2.0 8.0 0.00 0.00 0.00 81 1015.9
20260507024007 62 330 1.0 9.0 0.00 0.00 0.00 80 1014.6
20260507024002 62 122 1.0 8.0 0.00 0.00 0.00 80 1015.5
20260507023506 62 330 4.0 9.0 0.00 0.00 0.00 80 1014.4
20260507023020 62 325 2.0 8.0 0.00 0.00 0.00 81 1014.1
20260507023005 62 15 2.0 8.0 0.00 0.00 0.00 81 1015.0
20260507022507 62 329 2.0 8.0 0.00 0.00 0.00 81 1014.2
20260507022505 62 5 1.0 8.0 0.00 0.00 0.00 81 1015.0
20260507022006 62 328 2.0 6.0 0.00 0.00 0.00 81 1014.5
20260507021515 62 36 1.0 7.0 0.00 0.00 0.00 81 1015.4
20260507021508 62 288 2.0 8.0 0.00 0.00 0.00 81 1014.4
20260507021010 62 320 2.0 8.0 0.00 0.00 0.00 80 1014.4
20260507021004 62 34 2.0 7.0 0.00 0.00 0.00 80 1015.3
20260507020512 62 315 2.0 8.0 0.00 0.00 0.00 80 1014.3
20260507020504 62 10 2.0 6.0 0.00 0.00 0.00 80 1015.1
20260507020026 62 319 1.0 8.0 0.00 0.00 0.00 80 1014.1
20260507020005 62 19 2.0 8.0 0.00 0.00 0.00 80 1014.9
20260507015506 62 322 2.0 8.0 0.00 0.00 0.00 80 1013.7
20260507015005 62 340 2.0 9.0 0.00 0.00 0.00 80 1013.8
20260507014513 62 323 3.0 9.0 0.00 0.00 0.00 80 1013.9
20260507014508 62 348 2.0 6.0 0.00 0.00 0.00 80 1014.6
20260507014005 62 360 1.0 5.0 0.00 0.00 0.00 81 1014.5
20260507014003 62 333 2.0 5.0 0.00 0.00 0.00 81 1013.8
20260507013503 62 31 1.0 6.0 0.00 0.00 0.00 81 1014.3
20260507013013 62 332 2.0 8.0 0.00 0.00 0.00 80 1013.5
20260507013009 62 41 0.0 6.0 0.00 0.00 0.00 80 1014.1